Location: Unspecified
(0.0000°N, 0.0000°E)
Time: 09:05:29
(UTC+00:00)

Vanguard 3 - Pass Details

Date: 08 December 2017
Orbit: 508 x 3264 km, 33.4° (Epoch: 20 January)

Event Time Altitude Azimuth Distance (km) Brightness Sun altitude
Rises 00:19:43 0° 278° (W) 5,866 - -66.3°
Reaches altitude 10° 00:23:36 10° 270° (W) 5,195 - -66.0°
Maximum altitude 00:38:23 38° 208° (SSW) 4,161 - -64.6°
Exits shadow 00:39:36 38° 201° (SSW) 4,207 10.6 -64.5°
Drops below altitude 10° 00:56:07 10° 146° (SE) 6,100 11.9 -62.4°
Sets 01:01:20 0° 138° (SE) 6,939 12.3 -61.7°
